[[{"header":{"parameterUnit":"m.s-1","parameterCategory":1,"la1":30.2991,"la2":30.254,"lo1":-89.0895,"lo2":-89.0444,"dy":0.0017,"dx":0.0017,"nx":28,"ny":28,"refTime":"2023-11-07T09:00:00:Z","depth":0,"parameterNumber":2,"parameterNumberName":"U-component_of_WINDS"},"data":[0,0,0,0,0,0,0,0,0,0,0,0,0,0,0,0,0,0,0,0,0,0,0,0,0,0,0,0,0,0,0,0,0,0,0,0,0,0,0,0,0,0,0,0,0,0,0,0,0,0,0,0,0,0,0,0,0,0,0.2594,0.2595,0,0.265,0.2651,0.2652,0.261,0.2608,0.2607,0.2605,0.2666,0.2669,0.2672,0,0,0,0,0,0,0,0,0,0,0,0,0,0.2455,0.2458,0.2594,0.2595,0.2596,0.265,0.2651,0.2652,0.2611,0.2608,0.2606,0.2604,0.2665,0.2669,0.2673,0,0,0,0,0,0,0,0,0,0,0,0,0,0.2514,0.2459,0.2594,0.2582,0.2581,0.265,0.2651,0.2652,0.2611,0.2608,0.2606,0.2603,0.2664,0.2668,0.2673,0.2759,0,0,0.2689,0.2691,0,0,0,0,0,0,0,0,0.2511,0.2519,0.2583,0.2583,0.2582,0.262,0.2624,0.2688,0.2612,0.26,0.2605,0.2602,0.2653,0.2659,0.2676,0.2762,0.2764,0.2689,0.2692,0.2694,0.2696,0,0,0,0,0,0,0,0.2507,0.2516,0.2616,0.2584,0.2583,0.2574,0.258,0.2636,0.2641,0.2601,0.2598,0.2605,0.2653,0.2671,0.2677,0.2765,0.2689,0.2693,0.2696,0.2698,0.2927,0.293,0,0,0,0,0,0,0.2503,0.2513,0.2615,0.2618,0.2539,0.2579,0.2585,0.2611,0.2641,0.2642,0.2607,0.2603,0.2664,0.2671,0.2679,0.2783,0.2694,0.2699,0.2702,0.2924,0.2928,0.2931,0,0,0,0,0,0,0.25,0.2513,0.2612,0.2565,0.2577,0.2584,0.2614,0.2613,0.2632,0.2645,0.2646,0.2625,0.2662,0.2672,0.274,0.2785,0.2701,0.2706,0.292,0.2925,0.293,0.2991,0,0,0,0,0,0,0.2497,0.2512,0.2544,0.2566,0.258,0.2671,0.2616,0.2617,0.264,0.2635,0.2662,0.2664,0.266,0.2732,0.2745,0.279,0.271,0.2917,0.2923,0.2928,0.2985,0.2997,0.3008,0,0,0,0,0,0.2492,0.2559,0.2545,0.2558,0.2619,0.2674,0.2682,0.2675,0.2644,0.2677,0.2685,0.2663,0.2777,0.274,0.2753,0.2801,0.2914,0.2921,0.2928,0.298,0.2995,0.3007,0,0,0,0,0,0,0.2543,0.2562,0.2547,0.2623,0.2647,0.2667,0.2708,0.2691,0.2726,0.2719,0.2711,0.2717,0.2789,0.2801,0.2759,0.2886,0.2841,0.2851,0.2876,0.289,0.2901,0.2898,0.2714,0,0,0,0,0,0.2562,0.2604,0.2619,0.2685,0.2697,0.2701,0.2724,0.2717,0.2742,0.2753,0.2766,0.2793,0.2835,0.2863,0.2902,0.2986,0.2993,0.3025,0.3037,0.3046,0.3055,0.3103,0.3119,0.2954,0.2954,0.2954,0,0,0.2604,0.262,0.2647,0.2695,0.2713,0.2758,0.271,0.2759,0.2793,0.276,0.2826,0.2837,0.2866,0.2943,0.2978,0.2955,0.3102,0.3055,0.3062,0.3066,0.3112,0.3128,0.3142,0.2959,0.2958,0.2957,0,0,0.2704,0.2719,0.2777,0.2796,0.2823,0.2825,0.2839,0.2861,0.2867,0.2932,0.291,0.295,0.3022,0.3044,0.3065,0.3174,0.3156,0.3187,0.3247,0.3294,0.3307,0.3318,0.336,0.3375,0.3196,0.3196,0.3196,0,0.2753,0.2819,0.2809,0.286,0.2883,0.2855,0.2914,0.2933,0.2973,0.299,0.2964,0.3054,0.3071,0.3155,0.3181,0.3198,0.3216,0.3185,0.3305,0.3317,0.3328,0.3367,0.3383,0.32,0.3199,0.3199,0.3199,0,0.288,0.2926,0.2969,0.3007,0.3035,0.309,0.309,0.3119,0.3109,0.3115,0.3183,0.3202,0.3246,0.3264,0.3255,0.3347,0.3333,0.3306,0.3261,0.3347,0.3385,0.34,0.3205,0.3204,0.3203,0.3202,0,0,0.3015,0.3046,0.3063,0.3081,0.3109,0.3145,0.32,0.3241,0.3268,0.3296,0.3343,0.3405,0.3381,0.3404,0.3398,0.3439,0.3527,0.3407,0.3408,0.3431,0.3633,0.3655,0.3672,0.3514,0.3517,0.3519,0.3631,0,0.3118,0.3212,0.3205,0.3295,0.3339,0.3312,0.336,0.3384,0.339,0.3429,0.3436,0.3481,0.3445,0.3459,0.3498,0.3508,0.3568,0.35,0.3561,0.3563,0.3557,0.3691,0.3714,0.3819,0.3645,0.3648,0.365,0,0.3251,0.3284,0.3378,0.3402,0.342,0.3463,0.3502,0.3538,0.3565,0.3567,0.3594,0.3581,0.3638,0.3589,0.3669,0.3623,0.3647,0.3656,0.366,0.3668,0.3614,0.3705,0.3852,0.3869,0.3672,0.367,0.3669,0,0.3344,0.3411,0.3477,0.3492,0.352,0.3552,0.3565,0.3589,0.3615,0.3649,0.3667,0.3707,0.373,0.3762,0.3761,0.3725,0.3843,0.3794,0.3849,0.3849,0.3877,0.3876,0.4032,0.3888,0.3888,0.3888,0.3887,0,0.3462,0.3521,0.3519,0.356,0.3626,0.3617,0.3684,0.3694,0.3715,0.3759,0.3738,0.378,0.3774,0.3817,0.3816,0.3884,0.3894,0.3899,0.3898,0.3902,0.3902,0.392,0.3914,0.3892,0.3891,0.389,0.3889,0,0.3577,0.3578,0.3648,0.3669,0.3675,0.3724,0.3742,0.3782,0.3786,0.3841,0.3854,0.3861,0.391,0.3912,0.3968,0.3967,0.4051,0.4041,0.4042,0.4042,0.4098,0.4093,0.4274,0.4298,0.4135,0.4137,0.4138,0,0.3654,0.3699,0.3725,0.3752,0.3767,0.3811,0.3838,0.3831,0.386,0.3894,0.393,0.3977,0.4014,0.4094,0.4106,0.4149,0.4142,0.4202,0.4148,0.4151,0.4146,0.4145,0.415,0.4213,0.4215,0.4216,0.4218,0,0.3791,0.3789,0.3827,0.3867,0.3899,0.393,0.3958,0.3982,0.3979,0.4012,0.4062,0.4091,0.4148,0.4196,0.4238,0.4253,0.4237,0.4234,0.425,0.4255,0.4255,0.4259,0.4074,0.4231,0.4229,0.4228,0.4228,0.4227,0.3891,0.3931,0.3955,0.4,0.402,0.4048,0.4086,0.4095,0.4136,0.4182,0.4175,0.4231,0.4258,0.4313,0.4332,0.4377,0.4357,0.4378,0.4384,0.4391,0.4398,0.4246,0.4384,0.4384,0.4384,0.4383,0.4383,0,0.4029,0.4044,0.4084,0.4125,0.416,0.4139,0.417,0.4201,0.425,0.4276,0.4313,0.4372,0.4418,0.4433,0.4478,0.4511,0.4505,0.4524,0.4523,0.4527,0.4412,0.4396,0.4529,0.4529,0.4529,0.4529,0.4529,0.4529,0.4105,0.4172,0.4174,0.4251,0.4265,0.4319,0.4339,0.4365,0.4386,0.4452,0.449,0.4499,0.4521,0.4568,0.4611,0.4614,0.4633,0.4656,0.4657,0.455,0.4535,0.4521,0.4506,0.466,0.466,0.4768,0.4769,0.477]},{"header":{"parameterUnit":"m.s-1","parameterCategory":1,"la1":30.2991,"la2":30.254,"lo1":-89.0895,"lo2":-89.0444,"dy":0.0017,"dx":0.0017,"nx":28,"ny":28,"refTime":"2023-11-07T09:00:00:Z","depth":0,"parameterNumber":3,"parameterNumberName":"V-component_of_WINDS"},"data":[0,0,0,0,0,0,0,0,0,0,0,0,0,0,0,0,0,0,0,0,0,0,0,0,0,0,0,0,0,0,0,0,0,0,0,0,0,0,0,0,0,0,0,0,0,0,0,0,0,0,0,0,0,0,0,0,0,0,1.3583,1.3584,0,1.3672,1.3673,1.3674,1.3654,1.3652,1.3651,1.3649,1.374,1.3744,1.3748,0,0,0,0,0,0,0,0,0,0,0,0,0,1.34,1.3403,1.3583,1.3584,1.3586,1.3672,1.3673,1.3674,1.3654,1.3652,1.365,1.3648,1.3739,1.3744,1.3749,0,0,0,0,0,0,0,0,0,0,0,0,0,1.3483,1.3404,1.3583,1.3586,1.3587,1.3671,1.3673,1.3674,1.3655,1.3652,1.365,1.3647,1.3738,1.3743,1.3749,1.3836,0,0,1.3767,1.377,0,0,0,0,0,0,0,0,1.3478,1.349,1.3585,1.3586,1.3587,1.3649,1.3641,1.3729,1.3655,1.3629,1.3649,1.3646,1.3712,1.372,1.3742,1.384,1.3844,1.3768,1.3772,1.3774,1.3776,0,0,0,0,0,0,0,1.3473,1.3486,1.3618,1.3586,1.3588,1.3584,1.3593,1.3658,1.3684,1.3631,1.363,1.3641,1.3712,1.3736,1.3744,1.3846,1.3768,1.3773,1.3777,1.3779,1.4023,1.4025,0,0,0,0,0,0,1.3465,1.3481,1.3615,1.3621,1.3526,1.3589,1.3599,1.3632,1.3683,1.3688,1.3643,1.3639,1.3727,1.3737,1.3747,1.3855,1.3774,1.378,1.3783,1.402,1.4023,1.4026,0,0,0,0,0,0,1.3461,1.3478,1.3612,1.3551,1.3568,1.3595,1.3632,1.3635,1.3659,1.3692,1.3696,1.3662,1.3726,1.3739,1.3815,1.3858,1.3782,1.3788,1.4016,1.4021,1.4025,1.4069,0,0,0,0,0,0,1.3456,1.3476,1.3509,1.3552,1.3571,1.3678,1.3634,1.3639,1.3669,1.3666,1.3711,1.3716,1.3725,1.3806,1.3821,1.3864,1.3792,1.4013,1.4018,1.4023,1.4064,1.4074,1.4083,0,0,0,0,0,1.345,1.3517,1.3511,1.3527,1.3612,1.368,1.3691,1.3699,1.3673,1.3707,1.3728,1.3715,1.385,1.3814,1.383,1.3877,1.401,1.4017,1.4023,1.406,1.4072,1.4083,0,0,0,0,0,0,1.3479,1.3523,1.3516,1.3599,1.3636,1.3676,1.3719,1.3712,1.3757,1.3752,1.3761,1.3771,1.3849,1.387,1.3829,1.3965,1.3926,1.3936,1.3949,1.3961,1.397,1.3965,1.3797,0,0,0,0,0,1.3495,1.3546,1.3581,1.3652,1.367,1.3692,1.3721,1.3725,1.3763,1.3779,1.3805,1.3844,1.3895,1.3929,1.3977,1.4066,1.4077,1.4106,1.4116,1.4124,1.4133,1.4184,1.4199,1.4048,1.4048,1.4047,0,0,1.3529,1.3559,1.3591,1.3658,1.3687,1.3741,1.3705,1.3762,1.3803,1.3788,1.3862,1.3883,1.3926,1.401,1.4048,1.4029,1.4177,1.4132,1.4138,1.4143,1.4193,1.4207,1.422,1.4052,1.4051,1.4051,0,0,1.3619,1.3645,1.3708,1.3738,1.3782,1.3796,1.3811,1.3853,1.3867,1.3941,1.3932,1.398,1.4067,1.41,1.4127,1.4231,1.4222,1.4246,1.4298,1.4348,1.436,1.4371,1.441,1.4424,1.4255,1.4255,1.4255,0,1.3655,1.3735,1.3741,1.3801,1.3832,1.382,1.3885,1.3914,1.3972,1.3994,1.3973,1.4084,1.4112,1.4205,1.423,1.4252,1.4271,1.4242,1.4357,1.4368,1.4378,1.4416,1.4431,1.4258,1.4258,1.4258,1.4257,0,1.3779,1.3835,1.388,1.3938,1.3973,1.4035,1.4052,1.4088,1.4088,1.4105,1.4182,1.4215,1.4272,1.4293,1.4294,1.4387,1.4375,1.4355,1.4317,1.4396,1.4432,1.4446,1.4262,1.4261,1.4261,1.426,0,0,1.3891,1.3951,1.3968,1.3995,1.4043,1.4087,1.4149,1.4204,1.4236,1.4276,1.433,1.4405,1.4388,1.442,1.4424,1.4467,1.4551,1.4443,1.4444,1.4464,1.4659,1.4675,1.4692,1.4544,1.4547,1.4549,1.4656,0,1.3987,1.4096,1.4104,1.4203,1.4256,1.4246,1.43,1.4337,1.4354,1.4402,1.4421,1.4475,1.4447,1.4467,1.4509,1.4532,1.4591,1.4524,1.4596,1.4599,1.4589,1.471,1.4727,1.4826,1.467,1.4672,1.4674,0,1.4114,1.4159,1.4263,1.4306,1.4329,1.4377,1.443,1.4476,1.4517,1.4527,1.4563,1.4562,1.4627,1.4585,1.4676,1.4631,1.4661,1.4677,1.4681,1.469,1.4643,1.4725,1.4858,1.4874,1.4696,1.4694,1.4692,0,1.4188,1.4275,1.4349,1.4372,1.4423,1.4458,1.4481,1.452,1.4554,1.46,1.4623,1.4675,1.4705,1.4747,1.476,1.4728,1.4852,1.4811,1.4864,1.4864,1.4892,1.4891,1.5035,1.4907,1.4907,1.4907,1.4906,0,1.4296,1.4361,1.4383,1.4429,1.4502,1.4511,1.4584,1.4605,1.464,1.4691,1.4685,1.4733,1.4747,1.4798,1.4809,1.4885,1.4897,1.4908,1.4911,1.491,1.4909,1.4932,1.4927,1.4911,1.491,1.4909,1.4908,0,1.4392,1.4409,1.449,1.4533,1.4545,1.4597,1.4634,1.4679,1.4696,1.4761,1.4776,1.4803,1.4863,1.488,1.4951,1.4959,1.5049,1.5043,1.5035,1.5036,1.5089,1.5085,1.5254,1.5278,1.5133,1.5134,1.5135,0,1.4461,1.4511,1.4559,1.4593,1.4618,1.4672,1.4707,1.4718,1.4754,1.4807,1.4846,1.4905,1.4953,1.505,1.5076,1.5132,1.5129,1.5185,1.5138,1.5137,1.5134,1.5132,1.5138,1.5195,1.5196,1.5197,1.5198,0,1.4583,1.459,1.4639,1.4693,1.4735,1.4778,1.4819,1.4847,1.4864,1.4906,1.4967,1.5005,1.5079,1.5138,1.5195,1.522,1.5214,1.5213,1.5229,1.523,1.5224,1.5231,1.5062,1.5209,1.5208,1.5208,1.5207,1.5206,1.467,1.4715,1.4757,1.4813,1.4845,1.4884,1.493,1.4952,1.5003,1.5065,1.5068,1.5135,1.5178,1.5253,1.5281,1.5335,1.5319,1.5341,1.5347,1.5353,1.5359,1.5214,1.5345,1.5344,1.5344,1.5344,1.5344,0,1.4794,1.4821,1.4872,1.4931,1.4976,1.4964,1.501,1.5049,1.5108,1.5148,1.5196,1.5268,1.5326,1.5357,1.5416,1.5453,1.5452,1.5468,1.5467,1.5474,1.5369,1.535,1.5469,1.5469,1.5469,1.5469,1.5469,1.5469,1.4864,1.4941,1.4952,1.5045,1.5071,1.5137,1.5165,1.5202,1.5234,1.5314,1.5363,1.5383,1.542,1.5481,1.5535,1.5543,1.5566,1.5585,1.5591,1.5493,1.5481,1.5468,1.5452,1.5589,1.5589,1.5692,1.5693,1.5694]}]]